[[{"header":{"parameterUnit":"m.s-1","parameterCategory":1,"la1":30.2991,"la2":30.254,"lo1":-89.0895,"lo2":-89.0444,"dy":0.0017,"dx":0.0017,"nx":28,"ny":28,"refTime":"2024-04-26T21:00:00:Z","depth":0,"parameterNumber":2,"parameterNumberName":"U-component_of_WINDS"},"data":[0,0,0,0,0,0,0,0,0,0,0,0,0,0,0,0,0,0,0,0,0,0,0,0,0,0,0,0,0,0,0,0,0,0,0,0,0,0,0,0,0,0,0,0,0,0,0,0,0,0,0,0,0,0,0,0,0,0,-7.1701,-7.1702,0,-7.1827,-7.1829,-7.183,-7.1835,-7.1834,-7.1832,-7.1831,-7.1957,-7.1962,-7.1966,0,0,0,0,0,0,0,0,0,0,0,0,0,-7.1463,-7.1467,-7.1701,-7.1702,-7.1704,-7.1827,-7.1829,-7.183,-7.1835,-7.1834,-7.1832,-7.183,-7.1956,-7.1961,-7.1967,0,0,0,0,0,0,0,0,0,0,0,0,0,-7.1575,-7.1469,-7.17,-7.1721,-7.1724,-7.1827,-7.1829,-7.1831,-7.1836,-7.1833,-7.1831,-7.1829,-7.1954,-7.1961,-7.1968,-7.2057,0,0,-7.1989,-7.1993,0,0,0,0,0,0,0,0,-7.1569,-7.1584,-7.1717,-7.172,-7.1724,-7.1813,-7.1791,-7.1906,-7.1836,-7.1793,-7.1831,-7.1828,-7.1911,-7.1921,-7.195,-7.2063,-7.2068,-7.199,-7.1994,-7.1997,-7.1999,0,0,0,0,0,0,0,-7.1561,-7.1578,-7.1751,-7.1719,-7.1723,-7.1724,-7.1738,-7.1813,-7.1863,-7.1797,-7.1798,-7.1813,-7.1912,-7.1943,-7.1953,-7.207,-7.199,-7.1996,-7.2001,-7.2003,-7.2263,-7.2265,0,0,0,0,0,0,-7.1549,-7.1572,-7.1747,-7.1754,-7.1639,-7.173,-7.1745,-7.1787,-7.1862,-7.1872,-7.1814,-7.1812,-7.1932,-7.1945,-7.1957,-7.2066,-7.1997,-7.2004,-7.2008,-7.226,-7.2263,-7.2266,0,0,0,0,0,0,-7.1544,-7.1565,-7.1741,-7.1664,-7.1686,-7.1737,-7.1783,-7.179,-7.1821,-7.1876,-7.1884,-7.1837,-7.1931,-7.1947,-7.2032,-7.207,-7.2007,-7.2014,-7.2257,-7.2261,-7.2265,-7.2284,0,0,0,0,0,0,-7.1537,-7.1563,-7.1597,-7.1664,-7.169,-7.1814,-7.1786,-7.1794,-7.1834,-7.1832,-7.1899,-7.1907,-7.193,-7.2022,-7.2039,-7.2079,-7.2019,-7.2254,-7.2259,-7.2264,-7.228,-7.2288,-7.2295,0,0,0,0,0,-7.1529,-7.1597,-7.1599,-7.162,-7.1734,-7.1817,-7.1831,-7.1857,-7.1837,-7.1871,-7.1907,-7.1905,-7.2064,-7.203,-7.205,-7.2093,-7.2251,-7.2257,-7.2263,-7.2277,-7.2287,-7.2295,0,0,0,0,0,0,-7.1531,-7.1606,-7.1609,-7.1701,-7.1753,-7.1817,-7.1861,-7.1866,-7.1924,-7.192,-7.1949,-7.1964,-7.2048,-7.208,-7.204,-7.2183,-7.2155,-7.2166,-7.2159,-7.2169,-7.2176,-7.2165,-7.2025,0,0,0,0,0,-7.1543,-7.1604,-7.1666,-7.1741,-7.1767,-7.181,-7.1847,-7.1863,-7.1917,-7.1938,-7.198,-7.2032,-7.2094,-7.2134,-7.2194,-7.2286,-7.23,-7.2326,-7.2333,-7.2339,-7.2346,-7.2398,-7.2409,-7.2285,-7.2285,-7.2285,0,0,-7.1566,-7.1615,-7.1651,-7.1743,-7.1785,-7.1847,-7.1828,-7.1895,-7.1941,-7.1948,-7.2031,-7.2064,-7.2124,-7.2213,-7.2255,-7.2242,-7.2384,-7.2346,-7.2351,-7.2355,-7.2405,-7.2416,-7.2427,-7.2289,-7.2289,-7.2288,0,0,-7.1641,-7.1684,-7.1752,-7.1795,-7.1859,-7.1888,-7.1904,-7.197,-7.1992,-7.2076,-7.2083,-7.2139,-7.2245,-7.2287,-7.2323,-7.2417,-7.2418,-7.2436,-7.2473,-7.2523,-7.2533,-7.2542,-7.2574,-7.2585,-7.2444,-7.2444,-7.2444,0,-7.1661,-7.1756,-7.1785,-7.1852,-7.1892,-7.1904,-7.1972,-7.2013,-7.2093,-7.212,-7.2105,-7.224,-7.2281,-7.238,-7.2404,-7.2433,-7.2452,-7.2427,-7.2529,-7.2538,-7.2547,-7.2578,-7.259,-7.2446,-7.2446,-7.2446,-7.2445,0,-7.1778,-7.1844,-7.189,-7.1969,-7.2015,-7.2082,-7.2121,-7.2164,-7.2177,-7.2207,-7.2293,-7.2344,-7.2414,-7.244,-7.2453,-7.2542,-7.2532,-7.2524,-7.2495,-7.256,-7.2589,-7.2602,-7.2448,-7.2448,-7.2447,-7.2447,0,0,-7.1853,-7.195,-7.1966,-7.2002,-7.2076,-7.2127,-7.2195,-7.2266,-7.2301,-7.2358,-7.2415,-7.2506,-7.2499,-7.254,-7.2558,-7.2602,-7.2673,-7.2588,-7.259,-7.26,-7.2773,-7.2777,-7.279,-7.2675,-7.2678,-7.268,-7.2767,0,-7.1934,-7.2056,-7.2085,-7.2189,-7.225,-7.2265,-7.2324,-7.2376,-7.2407,-7.2463,-7.2498,-7.2561,-7.2548,-7.2573,-7.2618,-7.2654,-7.2707,-7.2649,-7.2727,-7.2729,-7.2708,-7.2806,-7.281,-7.289,-7.2779,-7.2781,-7.2783,0,-7.2043,-7.2103,-7.2213,-7.228,-7.2307,-7.236,-7.2427,-7.2482,-7.2541,-7.2561,-7.2608,-7.2622,-7.2694,-7.2666,-7.2764,-7.2724,-7.2759,-7.2782,-7.2786,-7.2791,-7.2757,-7.2811,-7.2916,-7.2927,-7.2801,-7.28,-7.2799,0,-7.2084,-7.2193,-7.2273,-7.2304,-7.2385,-7.2421,-7.2457,-7.2514,-7.2555,-7.2615,-7.2641,-7.2708,-7.2744,-7.2796,-7.2828,-7.2805,-7.2924,-7.2898,-7.2941,-7.2941,-7.2963,-7.296,-7.3071,-7.299,-7.299,-7.299,-7.2989,0,-7.217,-7.2236,-7.2293,-7.2342,-7.2417,-7.2452,-7.2525,-7.2561,-7.2612,-7.2668,-7.2686,-7.2737,-7.2778,-7.2836,-7.2863,-7.294,-7.2957,-7.2974,-7.2979,-7.2971,-7.2968,-7.2991,-7.2985,-7.2993,-7.2992,-7.2991,-7.2991,0,-7.2227,-7.2268,-7.2356,-7.2426,-7.2445,-7.2498,-7.2557,-7.2606,-7.2639,-7.271,-7.2728,-7.278,-7.2849,-7.2888,-7.2974,-7.2992,-7.3078,-7.3082,-7.3058,-7.306,-7.31,-7.3094,-7.3227,-7.3245,-7.3154,-7.3155,-7.3155,0,-7.2277,-7.2329,-7.2405,-7.2444,-7.248,-7.2543,-7.2586,-7.2623,-7.2666,-7.2739,-7.2779,-7.285,-7.2907,-7.3018,-7.3062,-7.3129,-7.3133,-7.3176,-7.3143,-7.3133,-7.3132,-7.3127,-7.3132,-7.318,-7.3181,-7.3181,-7.3182,0,-7.2361,-7.238,-7.244,-7.2509,-7.2559,-7.2615,-7.267,-7.2701,-7.2748,-7.2796,-7.2867,-7.2913,-7.3002,-7.3072,-7.3143,-7.3179,-7.3188,-7.3193,-7.3205,-7.3195,-7.3178,-7.3186,-7.307,-7.3188,-7.3187,-7.3187,-7.3187,-7.3186,-7.2415,-7.2462,-7.2523,-7.2591,-7.2637,-7.2688,-7.2737,-7.2777,-7.2838,-7.2914,-7.2933,-7.3008,-7.3068,-7.3164,-7.3203,-7.3262,-7.3254,-7.3273,-7.3278,-7.3281,-7.3282,-7.3172,-7.3275,-7.3275,-7.3275,-7.3275,-7.3275,0,-7.2498,-7.2539,-7.2601,-7.2678,-7.2732,-7.2738,-7.28,-7.2844,-7.291,-7.2966,-7.3023,-7.3106,-7.3175,-7.3226,-7.3296,-7.3334,-7.334,-7.3351,-7.3347,-7.3355,-7.3286,-7.3266,-7.3345,-7.3345,-7.3345,-7.3345,-7.3345,-7.3345,-7.2548,-7.2627,-7.2653,-7.2755,-7.2796,-7.287,-7.2905,-7.2953,-7.2997,-7.3089,-7.3147,-7.3181,-7.3235,-7.3309,-7.3372,-7.3386,-7.341,-7.342,-7.3434,-7.3367,-7.336,-7.3352,-7.3334,-7.3426,-7.3426,-7.3498,-7.3498,-7.3499]},{"header":{"parameterUnit":"m.s-1","parameterCategory":1,"la1":30.2991,"la2":30.254,"lo1":-89.0895,"lo2":-89.0444,"dy":0.0017,"dx":0.0017,"nx":28,"ny":28,"refTime":"2024-04-26T21:00:00:Z","depth":0,"parameterNumber":3,"parameterNumberName":"V-component_of_WINDS"},"data":[0,0,0,0,0,0,0,0,0,0,0,0,0,0,0,0,0,0,0,0,0,0,0,0,0,0,0,0,0,0,0,0,0,0,0,0,0,0,0,0,0,0,0,0,0,0,0,0,0,0,0,0,0,0,0,0,0,0,4.8313,4.8314,0,4.8434,4.8436,4.8437,4.8513,4.8514,4.8514,4.8515,4.8635,4.8638,4.8641,0,0,0,0,0,0,0,0,0,0,0,0,0,4.8144,4.8146,4.8313,4.8314,4.8316,4.8434,4.8436,4.8438,4.8513,4.8514,4.8514,4.8515,4.8634,4.8637,4.8641,0,0,0,0,0,0,0,0,0,0,0,0,0,4.8236,4.8147,4.8312,4.8368,4.8374,4.8434,4.8436,4.8438,4.8513,4.8514,4.8515,4.8515,4.8633,4.8637,4.8641,4.8654,0,0,4.8654,4.8656,0,0,0,0,0,0,0,0,4.8231,4.8242,4.8358,4.8364,4.8371,4.846,4.8421,4.851,4.8513,4.846,4.8515,4.8516,4.8576,4.8585,4.8606,4.866,4.8665,4.8654,4.8657,4.8659,4.866,0,0,0,0,0,0,0,4.8224,4.8237,4.8361,4.836,4.8368,4.8386,4.84,4.8438,4.8513,4.8465,4.8471,4.8484,4.8579,4.8602,4.8609,4.8666,4.8654,4.8658,4.8661,4.8662,4.8739,4.8739,0,0,0,0,0,0,4.8209,4.8232,4.8357,4.8364,4.8301,4.8389,4.8404,4.843,4.8513,4.8526,4.8484,4.8488,4.8594,4.8604,4.8614,4.8637,4.8659,4.8663,4.8665,4.874,4.8739,4.8739,0,0,0,0,0,0,4.8206,4.822,4.8352,4.83,4.8318,4.8391,4.842,4.8433,4.8455,4.8527,4.854,4.8493,4.8595,4.8608,4.8644,4.8642,4.8665,4.8668,4.874,4.874,4.8739,4.868,0,0,0,0,0,0,4.82,4.8218,4.8224,4.8299,4.832,4.8381,4.842,4.8434,4.8463,4.8469,4.8539,4.8551,4.8597,4.8638,4.8649,4.8648,4.8672,4.8741,4.874,4.8739,4.8682,4.8677,4.8673,0,0,0,0,0,4.8194,4.8201,4.8224,4.8239,4.833,4.8381,4.8393,4.8446,4.8462,4.8469,4.8515,4.8549,4.864,4.8641,4.8654,4.8654,4.8741,4.874,4.8739,4.8685,4.8678,4.8673,0,0,0,0,0,0,4.8121,4.8212,4.8238,4.827,4.8317,4.8393,4.8403,4.8437,4.848,4.8484,4.8547,4.8562,4.8592,4.8627,4.8626,4.8672,4.8695,4.8696,4.8649,4.8643,4.8639,4.863,4.8675,0,0,0,0,0,4.8109,4.8144,4.8221,4.8241,4.8264,4.8329,4.8353,4.8391,4.8442,4.8462,4.8511,4.8558,4.8598,4.8622,4.8662,4.8688,4.8705,4.8694,4.8689,4.8685,4.8686,4.8704,4.8701,4.8735,4.8735,4.8735,0,0,4.8084,4.8138,4.8156,4.8228,4.8269,4.8304,4.8346,4.8379,4.8406,4.8466,4.8505,4.8542,4.8599,4.8631,4.8647,4.866,4.868,4.8684,4.868,4.8683,4.8703,4.8699,4.8696,4.8735,4.8735,4.8735,0,0,4.8057,4.81,4.8124,4.8165,4.8227,4.8271,4.8276,4.8348,4.8376,4.8416,4.8463,4.8495,4.8561,4.86,4.8629,4.8619,4.8652,4.8629,4.8605,4.8622,4.8619,4.8617,4.8615,4.8613,4.863,4.863,4.863,0,4.8018,4.8073,4.8131,4.8164,4.8195,4.8253,4.8277,4.8314,4.8385,4.8405,4.8419,4.8505,4.8547,4.859,4.8588,4.8609,4.8617,4.8622,4.8615,4.8613,4.8612,4.8611,4.861,4.8627,4.8627,4.8627,4.8628,0,4.8022,4.806,4.8071,4.8141,4.8173,4.8201,4.8263,4.8289,4.8323,4.8365,4.8406,4.8459,4.8512,4.8525,4.8558,4.8573,4.858,4.8603,4.8627,4.8605,4.8605,4.8605,4.8622,4.8624,4.8624,4.8625,0,0,4.7952,4.8056,4.8059,4.8093,4.8167,4.8197,4.8227,4.8281,4.8303,4.835,4.8378,4.8434,4.8458,4.849,4.8528,4.8543,4.8534,4.8565,4.8568,4.8559,4.8556,4.8538,4.8537,4.8556,4.8556,4.8556,4.8552,0,4.7937,4.7997,4.8052,4.8092,4.8128,4.8185,4.8212,4.826,4.83,4.8336,4.838,4.842,4.8447,4.8467,4.8484,4.8531,4.8534,4.8532,4.8583,4.8584,4.8569,4.8537,4.8518,4.8511,4.8552,4.8552,4.8552,0,4.7928,4.7976,4.802,4.8093,4.811,4.8133,4.8188,4.8222,4.8278,4.8306,4.8344,4.8385,4.842,4.844,4.849,4.8487,4.8511,4.8538,4.8539,4.8546,4.8567,4.8545,4.851,4.8509,4.8552,4.8552,4.8552,0,4.7875,4.795,4.7987,4.8013,4.8099,4.8114,4.815,4.8207,4.8237,4.8284,4.8304,4.8354,4.8381,4.8419,4.8472,4.8482,4.8517,4.8541,4.8542,4.8541,4.8548,4.8547,4.8518,4.8561,4.8561,4.8561,4.8561,0,4.7853,4.7878,4.7965,4.7987,4.8018,4.808,4.8108,4.8148,4.8199,4.8231,4.8281,4.831,4.8378,4.8414,4.8456,4.8492,4.8504,4.8528,4.8539,4.8524,4.8521,4.8542,4.8544,4.8561,4.8561,4.8561,4.8561,0,4.7799,4.7858,4.7902,4.798,4.8001,4.802,4.8086,4.811,4.8154,4.8194,4.8206,4.8275,4.8321,4.8378,4.8441,4.8469,4.8501,4.8517,4.8483,4.849,4.8489,4.8488,4.8472,4.8474,4.8514,4.8513,4.8513,0,4.7783,4.7804,4.7885,4.7911,4.7946,4.7986,4.8018,4.8079,4.8109,4.8176,4.8192,4.8243,4.8286,4.8357,4.8412,4.8461,4.8479,4.847,4.8487,4.8472,4.8481,4.848,4.8483,4.8466,4.8465,4.8464,4.8464,0,4.7747,4.7776,4.782,4.7874,4.7911,4.7956,4.8003,4.8021,4.8092,4.8124,4.8173,4.8207,4.8273,4.8322,4.8379,4.8415,4.8452,4.8458,4.8462,4.8448,4.8428,4.844,4.8473,4.8459,4.8459,4.846,4.846,4.846,4.7713,4.7736,4.7797,4.7844,4.7887,4.7931,4.7958,4.8007,4.8049,4.8109,4.8142,4.819,4.8247,4.8327,4.8362,4.8401,4.8414,4.8418,4.8419,4.842,4.8416,4.8421,4.8411,4.8411,4.8411,4.8411,4.8412,0,4.7682,4.7725,4.7768,4.7834,4.7872,4.7904,4.7959,4.7988,4.803,4.8081,4.8124,4.818,4.8229,4.8288,4.8341,4.836,4.8378,4.8372,4.8372,4.838,4.84,4.8393,4.8357,4.8357,4.8357,4.8357,4.8357,4.8357,4.7671,4.7711,4.7747,4.7809,4.7852,4.7901,4.793,4.797,4.8011,4.8073,4.8115,4.8153,4.8208,4.8265,4.8312,4.8328,4.8345,4.8334,4.8356,4.8373,4.8378,4.8383,4.8377,4.8337,4.8337,4.8333,4.8333,4.8333]}]]